{"data":{"norad_id":66923,"epoch":"2026-09-20T23:06:51.983424Z","epoch_age_seconds":71917,"freshness":"FRESH","line1":"1 66923U 25285J   26263.96310166 -.00000114  00000+0  20644-4 0  9995","line2":"2 66923  50.0089 162.2419 0000099 245.2628 114.8233 13.29327655 38806","mean_motion":13.29327655,"eccentricity":9.9e-6,"inclination_deg":50.0089,"raan_deg":162.2419,"arg_perigee_deg":245.2628,"mean_anomaly_deg":114.8233,"bstar":2.0644e-5,"rev_number":3880,"period_min":108.32543764389,"perigee_km":1149.2258024936,"apogee_km":1149.3748457526,"semimajor_km":7527.4373241231,"source":"CELESTRAK","updated_at":"2026-09-21T09:00:16.306244Z"}}